{"data":{"norad_id":87730,"epoch":"2026-09-01T03:43:17.856192Z","epoch_age_seconds":1689513,"freshness":"OLD","line1":"1 87730U          26244.15506778  .00000061  00000+0  48201-4 0  9997","line2":"2 87730  82.9435  39.9332 0029598 355.0806   5.0054 13.74544608621383","mean_motion":13.74544608,"eccentricity":0.0029598,"inclination_deg":82.9435,"raan_deg":39.9332,"arg_perigee_deg":355.0806,"mean_anomaly_deg":5.0054,"bstar":4.8201e-5,"rev_number":62138,"period_min":104.76196928197,"perigee_km":961.5118880499,"apogee_km":1005.0886521139,"semimajor_km":7361.4372700819,"source":"CELESTRAK","updated_at":"2026-09-20T09:00:32.478840Z"}}